CAPE
0 0 0 0 3 0 4 0 4 17 0 0 333 441 365 572 574 458 582 208 119 23 60 80 89 121 175 182 275 124 34 141 307 386 10 0 0 68 316 127 979 270 1477 739
0 0 0 0 0 0 0 0 1 11 0 16 0 11 218 368 461 525 650 576 407 79 38 58 96 127 147 246 370 402 96 325 220 268 84 154 163 223 133 184 342 1129 1041 993
0 0 0 0 0 0 0 0 1 1 0 0 36 204 238 207 311 514 513 576 400 218 32 64 141 92 126 241 499 643 354 409 335 163 158 148 230 246 366 363 468 795 1184 1408
0 0 0 0 0 0 0 0 0 0 0 0 205 14 14 218 329 402 467 533 472 471 217 53 103 157 164 158 536 728 860 512 445 313 215 197 201 201 215 284 242 399 1304 1192
0 0 0 0 0 0 0 0 0 0 0 0 9 37 98 133 23 63 427 439 595 527 340 77 63 133 171 169 504 804 1103 816 455 508 367 288 335 70 67 48 302 864 1687 1369
0 0 0 0 0 0 0 0 0 0 0 2 15 29 42 35 30 10 17 172 407 604 545 501 94 183 157 169 402 800 1311 1183 628 565 500 369 403 395 20 28 430 954 771 1328
0 0 0 0 0 0 0 0 0 19 28 32 9 0 10 0 3 0 4 0 132 546 516 504 286 295 178 237 483 816 1461 1488 918 674 585 434 617 807 959 830 288 781 767 378
0 0 0 0 0 0 0 0 0 22 40 32 0 0 1 0 0 0 2 4 202 581 505 507 491 369 349 372 666 849 1497 1714 1392 819 707 655 658 798 990 1189 739 811 528 713
0 0 0 0 0 0 0 0 0 0 0 0 4 5 0 0 0 0 14 36 245 594 547 549 775 516 504 621 857 912 1613 1871 1644 1186 1193 1286 1222 951 699 1015 1098 775 1336 941
0 0 1 0 0 0 0 0 0 0 0 0 10 10 6 1 4 26 41 68 400 642 632 608 718 771 619 736 960 1015 1224 1657 1679 1313 1399 1144 1297 1471 1222 1014 924 1300 1154 912
0 0 0 0 0 0 0 0 0 0 0 0 3 24 0 0 0 3 71 295 603 695 649 675 702 879 764 901 989 1114 1379 1422 1787 1163 1397 906 1139 1241 1670 1407 1246 1452 1374 1232
0 0 0 3 1 0 0 0 0 0 0 0 3 0 0 0 0 4 52 516 479 528 634 692 786 936 886 896 1054 1345 1338 1356 1418 1069 1125 871 593 1048 1335 1678 1525 1705 1871 1618
0 0 0 2 21 25 0 0 0 1 9 9 1 12 0 0 0 0 68 777 815 736 903 820 778 923 1195 978 1273 1579 1611 1513 1451 975 726 1082 1307 1325 1463 1577 1616 1790 1959 2072
0 0 3 5 50 14 8 7 0 0 1 4 25 2 27 37 24 0 152 902 1029 1053 1128 1006 1026 1103 1235 1392 1533 1752 1755 1694 1717 1018 955 1431 1242 1424 1563 1577 1772 1959 1776 2000
0 0 0 0 0 24 0 0 1 25 26 16 22 51 19 2 25 53 50 757 1080 1234 1295 1171 1221 1388 1655 1812 1989 2038 2170 2136 1980 2029 2009 2041 2242 1972 2086 1887 1564 1840 1759 1761
0 0 0 0 0 6 27 50 39 55 21 43 66 24 25 14 5 18 47 601 1239 1183 1353 1413 1459 1729 1872 2023 2129 2303 2427 2481 2417 2586 2401 2535 2546 2540 2501 2352 2177 1891 1904 1887
0 2 3 0 23 18 48 23 52 50 55 56 39 139 70 27 29 74 62 682 1398 1029 953 1337 1627 1980 2099 2259 2339 2576 2725 2727 2743 2739 2712 2666 2629 2662 2680 2568 2489 2321 2111 1929
0 1 17 0 29 22 11 64 108 77 69 85 47 63 4 21 39 26 85 504 1357 1224 1082 1261 1393 1736 2131 2398 2498 2517 2644 2733 2743 2633 2582 2499 2302 2201 2219 2099 2175 2149 2193 2200
0 3 23 16 18 1 9 40 113 130 75 126 61 60 141 1 0 129 53 450 1093 1578 1599 1585 1698 1869 2256 2357 2602 2831 2890 2857 2734 2660 2203 2091 1933 1801 1705 1671 1568 1652 1808 1685
0 0 17 42 44 6 1 55 287 206 46 52 82 140 239 4 0 1 789 775 694 1427 2022 2394 2317 2757 2877 2824 2861 2526 2194 2030 1928 1825 1909 1600 1565 1515 1509 1398 1343 1262 1425 1405
20 38 8 23 49 20 17 33 55 201 221 834 766 916 1199 999 1092 1273 1150 1095 951 1073 1959 2622 2867 2988 2874 2301 1936 1823 1808 1781 1829 1598 1415 1289 1145 1282 1096 1202 1060 998 961 791
52 57 61 80 71 9 203 128 85 16 273 663 793 714 836 1093 391 1227 1294 1199 1454 1392 2098 2780 2986 2863 2356 1945 1752 1737 1730 1668 1382 1392 1308 992 873 718 704 767 803 929 894 861
48 60 53 48 43 12 61 143 416 325 482 597 519 578 635 605 856 1106 1324 1682 1483 1901 2165 2644 2801 2550 2087 1744 1687 1594 1744 1477 1518 1463 1125 1025 1000 814 679 683 673 680 993 497
32 66 36 30 13 51 149 112 127 379 343 221 179 214 407 617 506 953 1746 2047 1731 1855 2345 2576 2540 2372 1731 1653 1475 1692 1605 1657 1558 1442 1328 1151 1057 800 581 497 428 351 325 270
8 6 0 6 41 29 1 139 12 267 182 114 94 112 128 240 538 667 1264 2287 2223 1984 2326 2529 2429 2170 1721 1529 1568 1826 1860 1724 1613 1262 1142 895 735 556 487 55 78 67 0 0
10 14 25 30 25 20 1 36 24 28 234 122 78 139 70 11 84 281 926 1951 2522 2282 2541 2639 2579 2037 1667 1409 1770 1971 1588 1612 1394 1165 739 405 152 281 143 0 0 0 0 0
CIN
0 0 0 0 -4 -3 -2 0 -3 -2 -0 0 -1 -3 -3 -3 -6 -3 -2 -20 -11 -7 -2 -2 -2 -6 -18 -14 -7 -19 -33 -6 -3 -3 -20 0 -0 -41 -24 -42 -4 -48 -7 -11
0 0 0 0 0 0 0 0 -3 -2 0 -25 0 -12 -3 -2 -3 -16 -3 -2 -6 -6 -2 -16 -9 -10 -5 -7 -3 -3 -34 -5 -7 -1 -5 -4 -6 -1 -38 -31 -24 -1 -0 -5
0 0 0 0 0 0 0 0 -1 -1 0 0 -7 -11 -5 -3 -4 -15 -3 -2 -4 -11 -23 -11 -5 -12 -3 -7 -7 -9 -22 -17 -8 -1 -1 -2 -3 -3 -5 -4 -1 -2 -0 -2
0 0 0 0 0 0 0 0 0 0 0 -1 -58 -8 -123 -3 -4 -12 -17 -4 -4 -12 -4 -2 -9 -14 -39 -24 -3 -12 -10 -22 -15 -10 -1 -2 -1 -1 -3 -2 -4 -2 -0 -1
0 0 0 0 0 0 0 0 0 0 0 -0 -6 -5 -16 -4 -8 -4 -5 -5 -3 -6 -17 -9 -11 -15 -9 -10 -2 -8 -16 -18 -17 -15 -1 -5 -10 -2 -1 -2 -3 -3 -5 -3
0 0 0 0 0 0 0 0 0 0 0 -5 -4 -5 -9 -7 -5 -4 -4 -8 -4 -2 -4 -3 -9 -2 -10 -3 -3 -5 -14 -22 -36 -30 -23 -20 -8 -5 -2 -5 -6 -3 -2 -1
0 0 0 0 0 0 0 0 0 -7 -10 -8 -12 0 -2 0 -2 -3 -1 0 -24 -13 -10 -6 -3 -5 -7 -8 -17 -17 -16 -19 -42 -45 -32 -33 -12 -14 -4 -2 -1 -3 -6 -3
0 0 0 0 0 0 0 0 -0 -6 -6 -12 0 0 -6 0 -1 -3 -2 -7 -31 -25 -13 -10 -2 -5 -9 -4 -12 -23 -24 -19 -31 -53 -45 -44 -27 -4 -3 -2 -2 -4 -9 -30
0 0 0 0 0 0 0 0 0 0 0 0 -4 -7 0 0 0 0 -3 -7 -15 -29 -22 -27 -3 -4 -4 -2 -9 -31 -28 -25 -30 -43 -38 -52 -39 -24 -3 -1 -3 -2 -3 -24
0 0 -1 0 0 0 0 0 0 0 0 0 -3 -5 -8 -3 -3 -5 -3 -5 -17 -29 -27 -13 -3 -9 -5 -3 -3 -21 -28 -29 -28 -40 -41 -52 -29 -20 -18 -1 -4 -2 -1 -4
0 0 0 0 0 0 0 0 0 0 0 0 -4 -8 -13 0 0 -5 -5 -2 -5 -25 -30 -17 -27 -15 -11 -1 -1 -15 -43 -32 -17 -47 -23 -65 -25 -5 -15 -6 -5 -5 -0 -1
0 0 0 -5 -3 0 0 0 0 0 0 0 -7 -0 0 0 0 -4 -6 -2 -15 -29 -47 -49 -18 -8 -18 -22 -22 -16 -46 -42 -38 -49 -74 -61 -54 -21 -7 -2 -4 -2 -3 -2
0 -1 0 -1 -8 -12 0 0 -1 -7 -10 -8 -10 -8 0 0 0 0 -19 -15 -40 -46 -57 -65 -31 -6 -12 -39 -23 -36 -35 -34 -24 -39 -29 -22 -20 -14 -6 -3 -12 -3 -2 -2
0 0 -4 -7 -7 -90 -77 -4 0 0 -6 -14 -12 -31 -24 -10 -38 0 -8 -14 -41 -59 -72 -69 -47 -28 -29 -23 -21 -36 -36 -30 -21 -29 -11 -4 -41 -5 -6 -15 -1 -1 -5 -2
0 0 0 0 0 -28 -29 0 -4 -12 -6 -19 -11 -11 -32 -100 -15 -6 -2 -11 -34 -54 -61 -53 -51 -55 -44 -35 -30 -41 -38 -34 -30 -27 -15 -14 -2 -12 -4 -15 -27 -1 -4 -4
0 0 0 0 0 -17 -8 -13 -10 -9 -13 -8 -9 -30 -18 -58 -43 -38 -8 -4 -16 -49 -54 -55 -43 -52 -58 -55 -53 -50 -51 -49 -32 -21 -27 -13 -8 -2 -2 -1 -1 -11 -7 -9
-1 -77 -2 0 -28 -7 -9 -7 -7 -6 -6 -9 -10 -13 -30 -25 -6 -3 -7 -5 -19 -37 -49 -51 -43 -52 -61 -76 -79 -70 -60 -48 -39 -23 -11 -7 -9 -5 -3 -1 -1 -2 -4 -9
0 -2 -26 0 -29 -7 -17 -7 -7 -8 -11 -9 -7 -17 -23 -47 -18 -16 -5 -4 -19 -28 -38 -40 -42 -50 -59 -67 -66 -61 -56 -51 -34 -29 -18 -17 -20 -20 -15 -15 -5 -2 -3 -1
0 -2 -5 -5 -11 -3 -4 -6 -6 -7 -7 -8 -5 -7 -5 -45 0 -9 -2 -3 -12 -24 -24 -34 -27 -43 -56 -62 -70 -54 -33 -14 -12 -13 -38 -40 -44 -51 -45 -25 -21 -11 -2 -5
-1 0 -4 -4 -4 -3 -0 -9 -25 -9 -7 -11 -18 -17 -2 -236 -5 -9 -12 -17 -14 -19 -20 -26 -29 -49 -63 -60 -68 -75 -70 -65 -56 -58 -56 -77 -69 -57 -52 -51 -34 -29 -5 -2
-6 -7 -6 -5 -5 -5 -7 -18 -29 -3 -14 -33 -53 -47 -106 -45 -28 -49 -31 -33 -27 -19 -25 -32 -19 -37 -60 -108 -129 -119 -100 -73 -67 -84 -94 -101 -104 -72 -83 -63 -59 -47 -28 -23
-3 -7 -7 -6 -7 -4 -104 -11 -9 -21 -21 -31 -50 -100 -148 -128 -88 -72 -40 -58 -36 -27 -27 -34 -31 -50 -95 -121 -135 -127 -90 -101 -119 -96 -90 -119 -127 -131 -133 -99 -76 -32 -23 -22
-5 -5 -6 -7 -11 -132 -67 -21 -6 -13 -4 -2 -44 -71 -115 -137 -115 -94 -99 -45 -47 -45 -33 -27 -23 -49 -102 -123 -119 -129 -124 -130 -99 -84 -126 -123 -95 -94 -111 -86 -57 -40 -9 -32
-3 -4 -5 -3 -2 -5 -2 -14 -42 -5 -1 -4 -89 -97 -93 -64 -159 -132 -56 -6 -38 -48 -39 -22 -23 -31 -122 -117 -143 -128 -157 -126 -95 -80 -71 -71 -67 -93 -104 -79 -69 -66 -67 -80
-4 -14 -2 -8 -15 -25 -16 -16 -53 -29 -12 -55 -120 -125 -134 -104 -53 -78 -64 -30 -29 -46 -37 -11 -15 -59 -123 -152 -138 -113 -107 -108 -86 -88 -63 -85 -86 -109 -109 -206 -104 -136 0 0
-3 -6 -2 -4 -6 -4 -2 -9 -57 -14 -2 -23 -95 -94 -159 -190 -153 -118 -63 -15 -14 -26 -25 -12 -13 -73 -133 -166 -106 -84 -121 -116 -124 -103 -116 -129 -190 -159 -204 0 0 0 0 0
Wind_Speed
7 13 16 14 13 23 26 23 24 21 18 22 21 21 19 8 5 4 8 12 8 10 8 10 7 4 3 5 4 7 11 12 13 12 16 20 19 15 7 26 19 20 23 24
15 14 20 18 20 26 18 13 9 18 17 20 24 26 18 9 5 5 10 12 10 5 9 6 7 7 8 5 2 6 11 13 15 12 22 21 18 16 19 27 23 25 26 25
15 14 2 17 13 4 13 16 16 26 28 27 21 29 12 7 6 3 10 12 10 7 14 9 14 10 8 6 5 8 11 12 12 7 6 8 11 20 1 18 14 26 25 22
10 18 15 3 13 10 17 8 11 23 28 28 12 27 17 8 8 5 2 10 13 11 21 11 13 12 12 8 9 10 11 11 11 7 7 8 11 11 10 26 25 19 3 20
7 5 12 16 11 4 13 15 19 25 28 26 16 15 13 13 11 9 4 4 17 16 14 16 14 12 13 11 11 13 14 13 11 12 8 8 14 9 17 17 6 26 3 13
13 24 24 27 24 16 15 26 6 1 8 28 15 10 19 11 12 14 16 5 8 16 15 13 15 14 15 12 13 15 13 13 14 14 13 8 7 27 12 8 2 3 12 1
4 8 8 10 13 8 8 5 3 6 6 18 13 20 28 29 18 21 18 16 8 9 15 17 19 13 14 13 13 14 14 14 15 15 16 11 9 8 26 10 20 22 19 6
11 11 4 2 3 5 5 10 2 15 21 25 16 24 21 19 13 9 11 16 6 4 12 15 18 18 13 13 13 15 14 15 12 13 14 13 11 6 7 6 18 30 4 31
25 13 12 15 3 4 2 4 14 35 33 32 31 22 26 18 8 10 11 10 5 1 9 13 15 20 16 14 15 15 14 14 17 13 11 10 14 17 12 10 4 31 32 5
12 22 19 14 12 5 7 19 8 9 21 26 26 27 22 11 16 18 19 11 4 3 4 11 14 19 16 14 16 16 14 14 16 14 8 9 16 17 18 15 16 7 23 30
11 19 25 10 12 10 5 7 14 29 26 31 30 25 15 12 13 16 20 12 7 5 1 8 10 16 19 15 12 16 16 15 15 18 8 9 17 20 15 14 12 15 8 29
14 20 15 12 12 6 8 5 5 9 9 15 26 28 20 12 12 16 18 12 11 7 4 3 9 15 15 16 17 16 16 16 18 17 15 22 23 23 16 15 14 8 10 17
23 15 23 25 18 9 8 6 10 11 11 29 30 28 15 12 12 11 16 10 9 8 5 4 8 13 15 15 13 11 14 13 18 17 14 14 13 10 12 8 14 14 9 12
25 27 22 23 25 22 23 21 11 12 13 18 16 31 30 14 16 12 9 8 7 7 5 4 8 11 13 12 10 9 8 7 8 15 15 8 14 12 12 10 11 10 9 8
25 26 31 43 47 32 17 11 31 18 19 36 39 38 27 29 21 17 7 7 5 5 5 6 7 10 10 12 7 7 7 6 7 10 11 12 6 13 11 10 14 9 7 8
28 35 36 43 46 48 47 42 36 36 35 33 42 45 40 37 22 22 16 8 2 2 5 7 7 9 11 15 14 12 8 7 7 6 10 7 7 6 8 8 8 8 8 8
34 37 39 43 39 46 50 45 43 42 40 38 45 14 36 40 35 21 16 8 2 3 4 7 12 11 14 19 17 13 9 4 3 6 5 5 5 6 6 6 7 8 8 7
36 36 38 46 44 51 42 40 43 45 46 41 45 42 23 34 37 35 9 4 4 5 5 5 5 8 13 14 14 11 6 2 1 3 6 8 13 12 11 8 6 5 6 7
33 36 38 43 47 50 43 35 36 43 45 39 40 41 34 22 38 28 20 8 3 5 6 5 5 7 5 6 7 6 5 3 2 5 10 12 13 14 13 11 7 7 6 6
25 32 35 36 43 51 45 40 29 34 42 33 38 41 37 9 32 38 5 7 7 7 7 6 5 5 6 5 4 3 5 4 4 4 4 7 9 10 10 10 11 13 15 16
29 25 30 37 44 48 45 45 28 37 36 26 27 28 30 25 23 16 15 13 12 8 8 6 5 5 6 5 2 3 5 5 5 5 6 7 8 9 10 10 11 12 11 12
31 32 33 35 41 50 30 33 41 33 32 23 24 24 26 26 23 24 22 21 16 11 6 6 6 6 6 6 5 4 4 5 5 5 6 6 7 9 9 10 11 11 12 13
30 29 38 35 29 36 35 32 30 28 27 23 26 25 23 24 24 23 28 26 20 15 8 6 7 8 8 6 6 4 4 5 5 5 6 7 7 9 9 10 11 11 11 12
30 29 34 40 39 39 25 27 36 26 27 22 23 24 24 24 24 26 28 28 24 17 10 6 7 9 10 8 5 3 4 5 5 6 7 7 8 9 10 10 11 12 12 11
35 37 32 36 39 41 45 31 38 35 28 27 25 25 24 24 22 24 26 27 27 18 13 8 8 9 12 11 8 5 3 5 6 6 8 9 9 9 12 16 15 15 15 15
11 22 22 39 40 41 43 38 31 29 23 26 27 27 27 25 26 25 24 24 24 19 15 12 10 10 13 13 10 7 4 4 5 6 8 9 10 10 11 12 14 16 15 15
Wind_Direction
139 169 180 174 172 232 292 302 298 314 331 313 310 309 309 353 21 84 135 157 170 166 157 139 129 102 49 66 45 73 95 95 101 109 124 140 143 140 261 230 250 245 232 230
179 179 198 193 206 274 316 196 353 329 335 317 303 295 314 337 355 119 149 161 162 181 166 168 155 146 129 101 61 96 108 109 118 110 140 143 137 137 232 179 194 237 233 234
182 174 19 194 194 162 195 202 267 298 292 279 310 286 324 328 346 57 155 163 169 174 176 183 165 155 144 134 130 128 126 120 122 100 106 107 268 248 266 251 253 230 234 244
179 197 202 132 191 185 204 161 334 310 279 281 350 293 315 336 335 338 73 165 167 163 182 181 169 161 157 148 144 139 136 135 134 121 113 115 126 132 128 175 229 151 196 258
180 341 187 201 188 115 194 211 318 298 267 251 235 319 335 331 326 327 322 146 176 175 171 176 175 172 162 150 150 148 144 143 144 144 129 126 143 151 250 190 263 227 316 276
200 272 289 283 221 195 194 230 344 107 350 282 313 318 309 339 325 331 323 347 158 175 172 177 177 168 162 151 150 152 150 148 150 152 152 145 132 231 147 142 250 294 232 328
178 196 200 320 293 171 164 146 351 334 322 322 348 313 299 289 311 311 317 327 324 168 170 166 175 178 166 160 156 154 154 154 153 154 158 156 153 263 244 275 261 258 255 130
341 331 190 272 287 328 173 171 255 319 310 297 335 310 315 328 335 344 342 329 345 150 167 171 171 174 181 171 168 159 155 155 158 156 156 156 160 171 253 273 267 235 202 223
303 331 341 312 279 209 262 218 219 267 284 293 292 314 316 321 350 345 347 359 6 56 164 170 172 170 175 175 169 165 163 156 158 160 160 160 159 166 169 176 203 214 235 158
304 305 317 333 319 231 232 286 319 304 304 300 301 299 310 332 325 328 336 358 23 39 149 169 173 171 176 180 167 166 169 166 161 165 176 179 170 171 173 171 180 266 267 244
295 296 296 327 318 307 255 247 281 283 294 289 290 306 343 330 331 332 329 17 57 14 76 166 173 166 170 177 188 168 166 169 169 171 168 235 201 178 171 175 175 181 204 263
293 293 292 287 302 308 209 218 241 273 298 305 294 291 321 344 331 328 326 10 1 1 17 158 168 163 169 171 168 167 168 171 172 169 162 171 179 180 178 179 181 187 187 189
291 280 290 292 300 258 219 237 283 283 263 286 287 286 343 11 340 331 326 3 21 353 11 97 152 160 166 172 184 181 168 171 172 173 171 174 173 181 185 187 183 184 193 190
294 284 284 284 287 307 278 282 247 269 270 292 293 269 279 331 337 339 349 340 359 357 31 94 136 151 156 171 196 205 222 214 184 179 184 190 186 186 188 192 189 190 203 208
284 280 282 274 260 278 277 268 236 277 279 274 253 266 295 268 311 326 345 342 353 355 84 113 133 142 152 163 196 213 217 226 203 184 185 188 215 190 194 201 201 209 213 221
286 282 281 277 270 264 268 271 275 276 280 281 267 264 265 261 310 293 315 330 313 60 108 114 128 138 145 152 157 163 176 186 186 212 189 197 206 214 207 214 218 223 231 240
287 284 281 277 277 273 267 267 271 273 275 276 264 277 267 268 273 298 302 306 215 165 131 130 131 132 137 146 148 149 152 167 218 267 241 249 247 215 228 228 220 218 227 235
282 280 279 275 275 268 273 274 272 272 269 273 266 267 290 268 256 271 273 261 227 177 177 165 141 131 131 132 133 126 120 115 209 278 283 291 291 292 295 290 274 257 270 261
276 276 276 272 270 271 272 275 277 274 270 275 272 269 279 285 269 275 256 268 199 222 226 209 174 146 132 121 110 91 67 35 18 317 296 295 294 295 300 306 305 302 293 273
285 273 271 272 271 267 270 273 296 289 271 277 276 269 275 253 261 229 282 295 301 261 247 230 199 157 144 128 99 38 27 12 25 22 350 326 314 312 320 322 320 315 311 311
293 288 274 272 272 271 272 269 291 272 274 293 285 279 277 288 280 287 298 296 283 272 250 238 210 191 161 141 105 52 37 36 25 21 8 353 336 329 334 340 334 328 332 334
289 287 281 279 277 269 301 278 269 270 275 289 289 286 276 280 264 268 266 272 279 276 246 218 210 199 187 150 129 93 63 41 50 36 13 1 357 351 345 341 338 339 335 336
292 290 283 282 285 287 289 280 287 275 284 282 282 284 285 280 278 268 264 269 275 273 257 240 218 208 204 183 144 112 65 53 39 19 6 358 356 348 346 343 345 342 346 345
297 299 288 283 280 278 290 284 269 284 271 283 278 282 280 282 284 277 260 261 266 268 262 234 205 204 209 199 194 145 102 63 28 354 346 342 340 344 343 350 352 343 344 347
287 289 295 289 281 278 269 283 273 276 269 276 279 276 276 277 281 273 266 262 263 263 263 232 209 196 195 199 200 175 152 94 40 359 339 333 337 337 333 325 328 329 331 332
240 230 231 250 275 276 271 276 281 258 275 279 275 272 268 271 271 272 270 269 262 262 260 244 218 198 203 198 195 183 185 113 80 31 359 344 339 337 335 333 328 331 336 336